sat.trackr.live / text

‹ back to catalog

STARLINK-36642

NORAD 67659 · 2026-022M

PAYLOAD ACTIVE UNKNOWN

§ Identity

Operator
Country
US
Launch date
2026-02-02
Launch site
AFWTR
Launch vehicle
Mass (kg)
RCS (m²)

Purposes: comms

External: N2YO · Heavens-Above · Gunter

§ Orbital elements

Epoch: 2026-05-25T00:59:06.215424Z

Period
93.90 min
Inclination
97.2842°
Eccentricity
0.0000532
Mean motion
15.33477844 rev/d
Perigee alt
465.1 km
Apogee alt
465.8 km
Semi-major
6,843.6 km
B*
6.9368e-4
RAAN
178.2957°
Arg perigee
117.6259°
Mean anomaly
242.5037°
Rev number
1,727

§ Raw data

STARLINK-366421 67659U 26022M   26145.04104416  .00022409  00000+0  69368-3 0  99942 67659  97.2842 178.2957 0000532 117.6259 242.5037 15.33477844 17273

JSON: /api/v1/satellites/67659 · /tle

For live sub-satellite position, see the globe view (requires WebGL).

§ Visibility from observer

Set your observer location to see the next 7 days of passes ≥ 10°. The values pass through the URL so the page stays shareable.

No JS? Fill the form by hand. The geolocation button needs JavaScript.